#timestamp,LO_Frequency,Hit,StdDev 
1597395615.5,286046997.0,N
1597395635.3,286046996.7,N
1597395655.2,286046998.9,N
1597395675.9,286046998.8,N
1597395695.7,286046998.2,N
1597395715.6,286046998.6,N
1597395735.4,286046999.5,N
1597395755.2,286046998.2,N
1597395775.1,286047001.2,N
1597395776.0,286047001.2,N
1597395795.8,286046998.5,N
1597395815.7,286046999.1,N
1597395835.5,286047001.2,N
1597395855.3,286046998.3,N
1597395875.2,286047000.6,N
1597395895.0,286046998.5,N
1597395895.9,286046998.5,N
1597395915.7,286046998.6,N
1597395935.6,286046999.0,N
1597395955.4,286046998.7,N
1597395975.3,286046998.9,N
1597395995.1,286046998.1,N
1597395996.0,286046998.1,N
1597396015.8,286046998.7,N
1597396035.7,286046999.4,N
1597396055.5,286046999.3,N
1597396075.3,286046997.0,N
1597396095.2,286046999.1,N
1597396115.0,286046999.3,N
1597396115.9,286046999.3,N
1597396135.8,286046997.0,N
1597396155.6,286046998.2,N
1597396175.4,286046999.0,N
1597396195.3,286046998.0,N
1597396215.1,286046997.2,N
1597396235.9,286046996.5,Y
1597396255.7,286047002.7,P
1597396275.5,286047000.2,N
1597396295.4,286046998.9,N
1597396315.2,286046999.5,N
1597396335.0,286046999.6,N
1597396335.9,286046999.6,N
1597396355.8,286046996.7,N
1597396375.6,286046997.7,N
1597396395.5,286046995.0,Y
1597396415.3,286046997.5,P
1597396435.1,286046997.3,P
1597396455.9,286046999.4,N
1597396475.7,286046999.4,N
1597396495.6,286046997.4,N
1597396515.4,286046997.0,Y
1597396535.2,286047001.2,P
1597396555.1,286046998.7,N
1597396556.0,286046998.7,N
1597396575.8,286046999.6,N
1597396595.7,286046997.8,N
1597396615.5,286046997.2,N
1597396635.3,286046997.7,N
1597396655.2,286046998.0,N
1597396675.0,286046995.3,Y
1597396675.9,286046995.3,P
1597396695.8,286046997.0,N
1597396715.6,286046996.7,N
1597396735.4,286046997.5,N
1597396755.3,286046997.9,N
1597396775.1,286046997.7,N
1597396795.8,286046994.9,Y
1597396815.7,286046998.7,P
1597396835.5,286046998.3,N
1597396855.4,286046999.4,N
1597396875.2,286046998.3,N
1597396895.0,286046999.1,N
1597396895.9,286046999.1,N
1597396915.8,286046999.1,N
1597396935.6,286046999.0,N
1597396955.5,286046996.5,Y
1597396975.3,286047001.2,P
1597396995.1,286047001.0,N
1597397015.9,286047000.5,N
1597397035.7,286047000.0,N
1597397055.5,286047000.9,N
1597397075.4,286047000.6,N
1597397095.2,286046999.9,N
1597397115.1,286047001.0,N
1597397116.0,286047001.0,N
1597397135.8,286047000.6,N
1597397155.6,286047000.6,N
1597397175.5,286047000.5,N
1597397195.3,286047000.2,N
1597397215.1,286047000.5,N
1597397235.9,286047000.7,N
1597397255.7,286047001.1,N
1597397275.6,286047000.4,N
1597397295.4,286047000.6,N
1597397315.2,286047000.9,N
1597397335.1,286047000.8,N
1597397336.0,286047000.8,N
1597397355.8,286046998.7,N
1597397375.6,286047000.8,N
1597397395.5,286047000.1,N
1597397415.3,286047000.6,N
1597397435.2,286047000.0,N
1597397455.9,286047001.1,N
1597397475.7,286047001.1,N
1597397495.6,286047000.7,N
1597397515.4,286046998.5,N
1597397535.2,286047000.9,N
1597397555.1,286046998.3,N
1597397556.0,286046998.3,N
1597397575.8,286046998.3,N
1597397595.7,286046998.3,N
1597397615.5,286046998.1,N
1597397635.3,286047000.8,N
1597397655.2,286047000.8,N
1597397675.0,286047001.0,N
1597397675.9,286047001.0,N
1597397695.8,286047000.1,N
1597397715.6,286047000.3,N
1597397735.4,286047000.3,N
1597397755.3,286047002.7,N
1597397775.1,286047002.5,N
1597397795.8,286047000.2,N
1597397815.7,286046999.9,N
1597397835.5,286047000.2,N
1597397855.3,286046999.7,N
1597397875.2,286047002.4,N
1597397895.0,286047000.3,N
1597397895.9,286047000.3,N
1597397915.8,286047000.3,N
1597397935.6,286047000.5,N
1597397955.4,286047001.0,N
1597397975.3,286047001.2,N
1597397995.1,286046998.6,N
1597398015.9,286046998.6,N
1597398035.7,286046998.6,N
1597398055.5,286046998.5,N
1597398075.4,286046998.6,N
1597398095.2,286046998.6,N
1597398115.0,286046998.2,N
1597398115.9,286046998.2,N
1597398135.8,286046998.2,N
1597398155.6,286047001.2,N
1597398175.5,286047001.2,N
1597398195.3,286047001.0,N
1597398215.1,286047000.5,N
1597398235.9,286047000.7,N
1597398255.7,286047001.2,N
1597398275.5,286046998.5,N
1597398295.4,286046998.2,N
1597398315.2,286047000.6,N
1597398335.1,286047000.8,N
1597398336.0,286047000.8,N
1597398355.8,286047000.7,N
1597398375.6,286046999.8,N
1597398395.5,286047002.7,N
1597398415.3,286046999.9,N
1597398435.1,286047002.8,N
1597398455.9,286047001.6,N
1597398475.7,286047001.7,N
1597398495.6,286047002.0,N
1597398515.4,286047002.7,N
1597398535.2,286047002.0,N
1597398555.1,286047001.6,N
1597398556.0,286047001.6,N
1597398575.8,286047002.5,N
1597398595.7,286047002.1,N
1597398615.5,286047001.9,N
1597398635.3,286047001.6,N
1597398655.2,286047001.5,N
1597398675.9,286047002.2,N
1597398695.7,286047002.0,N
1597398715.6,286047001.6,N
1597398735.4,286047001.5,N
1597398755.3,286047002.2,N
1597398775.1,286047002.5,N
1597398776.0,286047002.5,N
1597398795.8,286047002.6,N
1597398815.7,286047002.5,N
1597398835.5,286047002.7,N
1597398855.3,286047002.6,Y
1597398875.2,286047000.5,P
1597398895.0,286047000.8,N
1597398895.9,286047000.8,N
1597398915.8,286047000.2,N
1597398935.6,286047001.2,N
1597398955.4,286047001.2,N
1597398975.3,286046997.0,Y
1597398995.1,286046995.4,P
1597399015.9,286046996.4,N
1597399035.7,286046993.8,N
1597399055.5,286046992.1,N
1597399075.4,286046991.9,N
1597399095.2,286046991.0,N
1597399115.0,286046991.4,N
1597399115.9,286046991.4,N
1597399135.8,286046989.7,Y
1597399155.6,286046993.6,P
1597399175.5,286046994.0,P
1597399195.3,286046994.4,P
